www.pogodaiklimat.ru

Погода и климат >> Архив погоды >> Казахстан >> Житикара


ПОГОДА в Житикаре

  • Прогноз погоды в Житикаре
  • Монитор погоды в Житикаре

АРХИВ ПОГОДЫ в Житикаре

Время (UTC), дата Ветер
(напр.,м/с)
 
Видим.   Явления Облачность Т
(С)
Тd
(С)
f
(%)
Тe
(С)
Тes
(С)
Комфортность P
(гПа)
Po
(гПа)
Тmin
(С)
Tmax
(С)
R
(мм)
R24
(мм)
S
(см)
12 13.08 З 4 50 км 3/3 1000 м
[Cu med, cong]
+22.1 +9.0 43 +23 +26 комфорт 997.7 966.0
15 13.08 З 5 50 км 4/4 600 м
[Sc]
+18.4 +7.8 50 +18 +18 1001.3 969.3 +24.3
18 13.08 З 3 н/о 3/3 1000 м
[Sc]
+12.7 +8.1 74 +11 +11 1001.8 969.0 +24.3
21 13.08 ЮЗ 1 н/о ясно +10.0 +6.5 79 +10 +10 1003.7 970.7
00 14.08 ЮЗ 1 н/о ясно +7.7 +5.0 83 +7 +7 1004.2 970.8
03 14.08 штиль 0 50 км 3/0
[Ci fib]
+12.3 +7.1 71 +12 +15 1005.3 972.2
06 14.08 Ю 1 50 км ясно +18.1 +10.6 62 +19 +32 опасность
простуды
1006.2 974.0 +7.2
09 14.08 Ю 4 50 км 8/8 1000 м
[Cu med, cong]
+20.8 +9.7 49 +23 +25 комфорт 1007.9 976.0
12 14.08 ЮВ 2 50 км 8/8 1000 м
[Cu med, cong]
+22.9 +7.7 38 +24 +25 комфорт 1006.7 974.8
15 14.08 штиль 0 50 км 8/6 600 м
[Sc Ci sp]
+20.1 +7.1 43 +21 +21 комфорт 1009.4 977.3 +24.7
18 14.08 С 2 н/о 9/9 600 м
[Sc]
+17.6 +7.3 51 +18 +18 1009.9 977.4 +24.7
21 14.08 СВ 1 н/о 5/5 600 м
[Sc]
+13.7 +6.8 63 +14 +14 1011.6 978.7
00 15.08 штиль 0 н/о 3/3 600 м
[Sc]
+12.2 +8.0 75 +12 +12 1011.7 978.4
03 15.08 С 2 50 км 5/5 1000 м
[Sc]
+16.3 +9.8 65 +16 +18 1012.7 980.0
06 15.08 С 4 50 км 3/3 1000 м
[Cu med, cong]
+22.7 +12.5 53 +25 +31 комфорт 1012.2 980.2 +11.4
09 15.08 С 6 50 км 8/8 600 м
[Cu med, cong]
+24.1 +8.1 36 +25 +26 комфорт 1013.1 981.3
12 15.08 С 5 50 км 6/6 600 м
[Cu med, cong]
+25.6 +7.8 32 +26 +27 жарко 1011.9 980.2
15 15.08 СВ 5 50 км 3/3 1000 м
[Cu med, cong]
+23.4 +10.4 44 +25 +25 комфорт 1013.1 981.3 +27.2
18 15.08 С 1 н/о 3/3 600 м
[Sc]
+17.2 +9.2 59 +18 +18 1015.2 982.5 +27.2
21 15.08 С 2 н/о ясно +13.6 +8.6 72 +13 +13 1017.0 984.0
00 16.08 С 1 н/о ясно +11.7 +8.9 83 +12 +12 1017.2 984.0
03 16.08 С 2 50 км 4/4 600 м
[Sc]
+16.1 +10.9 71 +16 +18 1017.5 984.6
06 16.08 СВ 4 50 км 5/5 1000 м
[Cu med, cong]
+25.1 +10.4 40 +26 +30 жарко 1016.6 984.7 +11.1
09 16.08 С 5 50 км 9/8 1000 м
[Cu med, cong Ci sp]
+26.7 +8.2 31 +27 +27 жарко 1016.9 985.3
12 16.08 СВ 4 50 км 4/3 1000 м
[Cu med, cong Ci sp]
+27.6 +7.0 27 +27 +29 жарко 1014.6 983.0
15 16.08 С 2 50 км 4/0
[Ci sp]
+25.2 +9.1 36 +26 +26 жарко 1015.7 984.0 +28.2
18 16.08 СВ 1 н/о ясно +19.9 +8.1 46 +22 +22 комфорт 1016.8 984.2 +28.2
21 16.08 штиль 0 н/о ясно +15.0 +7.8 62 +15 +15 1018.2 985.3
00 17.08 штиль 0 н/о ясно +13.2 +8.1 71 +13 +13 1018.7 985.3
03 17.08 штиль 0 50 км 4/0
[Ci sp]
+16.7 +8.0 56 +17 +20 1018.7 985.8
06 17.08 С 4 50 км 9/0
[Ci sp]
+28.5 +10.3 32 +29 +35 жарко 1017.7 986.1 +12.1
09 17.08 СВ 3 50 км 9/0
[Ci sp]
+30.2 +9.1 27 +30 +31 жарко 1018.0 986.7
12 17.08 СВ 4 50 км 9/0
[Ci sp]
+31.0 +9.4 26 +30 +33 жарко 1016.2 984.8
15 17.08 В 1 50 км 9/0
[Ci sp]
+28.8 +11.4 34 +29 +29 жарко 1016.7 985.3 +32.5
18 17.08 СВ 1 н/о 8/0
[Ci sp]
+23.9 +10.2 42 +25 +25 комфорт 1017.6 985.5 +32.5
21 17.08 штиль 0 н/о 6/0
[Ci sp]
+19.3 +8.9 51 +20 +20 1019.2 986.7
00 18.08 штиль 0 н/о 3/0
[Ci sp]
+16.4 +8.6 60 +16 +16 1019.6 986.6
03 18.08 штиль 0 50 км 5/0
[Ci sp]
+19.2 +9.2 52 +20 +23 1019.6 987.0
06 18.08 Ю 1 50 км 6/0
[Ci sp]
+29.7 +13.0 36 +31 +42 жарко 1018.9 987.3 +16.1
09 18.08 Ю 1 50 км 8/4 1000 м
[Cu med, cong Ci sp]
+33.0 +12.0 28 +33 +38 жарко 1019.0 988.0
12 18.08 Ю 2 50 км 8/8 1000 м
[Cu med, cong]
+33.9 +10.0 23 +33 +34 жарко 1017.5 986.4
15 18.08 штиль 0 50 км 9/5 1000 м
[Sc Ci sp]
+30.0 +9.5 28 +30 +30 жарко 1019.3 988.0 +35.4
18 18.08 штиль 0 н/о 9/3 1000 м
[Sc Ci sp]
+23.1 +8.2 38 +24 +24 комфорт 1020.4 988.1 +35.4
21 18.08 штиль 0 н/о 9/0
[Ci sp]
+20.5 +10.0 51 +22 +22 комфорт 1021.7 989.3
00 19.08 штиль 0 н/о 9/0
[Ci sp]
+18.8 +11.5 63 +19 +19 1021.9 989.1
03 19.08 штиль 0 50 км 9/3 1000 м
[Cu med, cong Ci sp]
+21.7 +10.6 49 +23 +25 комфорт 1022.0 989.5
06 19.08 С 2 50 км 9/9 1000 м
[Cu med, cong]
+27.8 +11.4 36 +29 +30 жарко 1022.7 990.8 +18.5
09 19.08 СВ 5 50 км 9/9 1000 м
[Sc]
+29.7 +10.7 31 +30 +31 жарко 1023.5 992.0
12 19.08 С 6 50 км 8/8 1000 м
[Cu med, cong]
+31.8 +9.9 26 +31 +32 жарко 1021.6 990.2
15 19.08 штиль 0 50 км 8/8 1000 м
[Cu med, cong]
+29.2 +13.0 37 +31 +31 жарко 1023.5 992.0 +32.9
18 19.08 СВ 1 н/о 6/6 600 м
[Sc]
+24.3 +13.7 52 +27 +27 жарко 1023.7 991.5 +32.9
21 19.08 В 1 н/о 8/8 600 м
[Sc]
+21.6 +14.5 64 +25 +25 комфорт 1024.3 992.0
00 20.08 В 2 н/о 6/0
[Ci sp]
+20.7 +15.3 71 +24 +24 комфорт 1023.8 991.3
03 20.08 ЮВ 2 50 км 4/4 600 м
[Sc]
+19.9 +13.6 67 +22 +24 комфорт 1023.9 991.3
06 20.08 Ю 2 50 км 9/9 600 м
[Sc]
+25.4 +13.3 47 +27 +28 жарко 1022.9 990.8 +19.7
09 20.08 Ю 5 50 км 9 баллов +29.7 +11.2 32 +30 +31 жарко 1020.7 989.3

 

Местоположение метеостанции Житикара (Костанайская область, Казахстан): широта 52.30 долгота 61.32 высота над уровнем моря 279 м.

В архиве по умолчанию представлена погода в Житикаре за последнюю неделю. Архивные данные за месяц целиком и за предыдущие месяцы, начиная с января 2011 года, Вы можете получить, выбрав интересующий диапазон дат из раскрывающегося списка и нажав кнопку "Ввод!".


*Определитесь, кто Вы:
робот инопланетянин человек

Внимание! Время в таблицах - всемирное. Для получения местного времени необходимо прибавить поправку, которая равна 5 ч.

Смотрите также архив погоды в соседних городах и на ближайших метеорологических станциях:

Погода в Аршалынском (Акмолинская область, Казахстан) (47 км)
Погода в Бредах (Челябинская область, Россия) (67 км)
Погода в Карталы (Челябинская область, Россия) (94 км)
Погода в Тоболе (Костанайская область, Казахстан) (96 км)
Погода в Айдырля (Оренбургская область, Россия) (106 км)
Погода в Зерносовхозе Озерном (Оренбургская область, Россия) (137 км)
Погода в Теренсае (Актюбинская область, Казахстан) (142 км)
Погода в Рудном (Костанайская область, Казахстан) (143 км)
Погода в Михайловке (Костанайская область, Казахстан) (145 км)
Погода в Диевской (Костанайская область, Казахстан) (165 км)

Пояснения к столбцам:

Ветер - указаны скорость ветра в м/с - средняя за 10 мин, порывы в срок и между сроками (в фигурных скобках) и направление, откуда дует ветер: С - северный, СВ - северо-восточный, В - восточный, ЮВ - юго-восточный, Ю - южный, ЮЗ - юго-западный, З - западный, СЗ - северо-западный.
Видимость - горизонтальная дальность видимости в метрах или километрах. При видимости от 1 до 10 км при отсутствии осадков обычно наблюдается дымка, при ухудшении видимости до 1 км и менее - туман. В сухую погоду видимость может ухудшаться дымом, пылью или мглою.
Явления - указаны атмосферные явления, наблюдавшиеся в срок или в последний час перед сроком; фигурными скобками обозначены явления, наблюдавшиеся между сроками (за 1-3 часа до срока); квадратными скобками обозначены град или гололедные отложения с указанием их диаметра в мм.
Облачность - указаны через наклонную черту общая и нижняя облачность в баллах и высота нижней границы облаков в метрах; квадратными скобками обозначены формы облаков: Ci - перистые, Cs - перисто-слоистые, Cc - перисто-кучевые, Ac - высококучевые, As - высокослоистые, Sc - слоисто-кучевые, Ns - слоисто-дождевые, Cu - кучевые, Cb - кучево-дождевые. Подробнее классификацию облаков см. в Атласе облаков (PDF).
T - Температура воздуха - температура, измеренная на высоте 2 м над землей.
Td - Температура точки росы - температура, при понижении до которой содержащийся в воздухе водяной пар достигнет насыщения.
f - Относительная влажность воздуха - влажноcть воздуха, измеренная на высоте 2 м над землей.
Te - Эффективная температура - температура, которую ощущает одетый по сезону человек в тени. Характеристика душности погоды. При расчете учитывается влияние влажности воздуха и скорости ветра на теплоощущения человека.
Tes - Эффективная температура на солнце - температура, которую ощущает человек, с поправкой на солнечный нагрев. Характеристика знойности погоды. Зависит от высоты солнца над горизонтом, облачности и скорости ветра. Ночью, в пасмурную погоду, а также при ветре 12 м/с и более поправка равна нулю.
P - Атмосферное давление - приведенное к уровню моря атмосферное давление.
Po - Атмосферное давление - измеренное на уровне метеостанции атмосферное давление.
Tmin - Минимальная температура - минимум температуры воздуха на высоте 2 м над землей.
Tmax - Максимальная температура - максимум температуры воздуха на высоте 2 м над землей.
R - Количество осадков - Количество выпавших осадков за период времени, мм. При наведении курсора мыши на число - период времени, за который выпало указанное количество осадков.
R24 - Количество осадков - Количество выпавших осадков за 24 часа, мм.
S - Снежный покров - Высота снежного покрова, см. При наведении курсора мыши на число - состояние снежного покрова и степень покрытия местности в баллах.